Theta_e
354 353 351 350 349 348 345 344 341 340 338 335 331 332 330 328 325 321 320 318 315 314 313 312 310 310 307 305 304 302 301 299 300 300 299 299 301 299 296 295 295 297 299
352 352 350 348 347 345 343 340 339 337 334 332 331 329 327 323 321 320 316 315 313 311 309 308 305 303 298 299 297 297 298 299 299 299 297 298 297 298 296 295 295 296 297
351 350 348 347 345 343 340 338 335 332 331 329 328 326 321 321 320 317 314 313 311 309 305 300 297 295 295 297 297 297 298 298 298 296 297 296 296 296 296 296 296 296 296
351 348 347 346 343 341 337 334 331 329 327 326 324 321 320 318 316 314 313 311 309 305 301 298 296 294 296 298 298 298 299 298 297 295 296 296 296 296 296 296 296 296 296
348 347 346 344 340 336 332 329 327 325 323 322 320 318 317 316 313 313 311 309 306 303 299 296 291 292 297 298 298 298 298 298 296 296 296 296 296 296 296 296 296 296 296
342 343 345 337 331 329 328 325 323 321 318 318 317 315 316 314 313 311 310 306 303 301 298 295 289 292 296 296 296 296 298 297 296 296 297 296 296 297 296 296 295 295 296
336 333 330 329 327 326 323 321 319 313 313 312 313 314 313 312 311 309 307 305 303 300 296 289 289 292 293 292 293 294 294 295 296 296 296 297 296 295 294 296 296 295 295
333 330 329 327 324 322 319 314 311 310 309 308 309 309 308 307 308 306 303 298 293 291 289 290 291 292 292 292 293 294 294 295 296 296 297 294 295 294 295 295 295 295 296
330 328 325 322 318 315 312 311 309 307 305 304 305 305 304 303 301 295 294 294 292 290 290 291 292 292 292 293 293 293 294 295 295 295 295 294 294 293 294 294 294 294 295
325 322 320 317 314 312 310 308 306 304 302 303 303 303 303 303 302 300 299 296 293 292 292 292 293 293 293 293 293 294 294 294 294 294 294 293 293 293 294 294 294 294 294
318 316 314 313 311 308 306 305 303 301 300 299 299 299 299 300 301 301 300 296 294 293 293 293 293 294 294 293 294 294 294 294 294 294 294 293 292 293 293 294 294 295 293
314 313 311 310 308 306 304 302 300 299 297 296 296 296 296 297 297 297 295 294 293 294 293 294 294 294 295 295 293 292 293 293 293 293 293 292 291 292 293 293 294 293 293
311 310 308 306 305 302 300 299 297 297 295 293 293 293 293 294 294 294 294 295 295 294 294 294 295 295 294 295 293 292 292 293 292 292 292 291 291 292 292 293 292 292 293
308 307 306 304 302 300 299 299 296 294 293 293 293 294 294 294 295 295 295 296 295 296 296 295 294 294 294 293 293 292 291 292 292 292 291 290 291 291 292 292 292 291 292
305 301 299 298 298 298 299 298 297 296 296 298 297 296 295 295 296 295 295 295 295 295 294 294 293 293 293 292 293 291 290 291 291 291 290 290 290 291 291 292 291 291 291
299 297 296 294 293 293 293 293 299 300 300 299 297 295 292 293 293 294 294 295 295 294 293 293 293 292 292 292 292 290 289 289 290 290 289 289 290 290 291 291 290 290 291
297 296 295 294 293 292 291 290 289 289 291 291 291 291 292 293 294 294 295 294 294 293 293 292 292 292 291 291 291 289 288 287 288 289 287 288 289 290 291 290 289 290 290
297 297 295 294 293 292 291 290 289 288 289 290 291 292 293 294 295 295 295 294 293 292 292 292 292 291 291 290 289 288 287 285 286 286 286 288 289 289 290 289 288 289 290
297 297 296 295 294 292 290 289 289 289 290 291 292 293 294 295 295 294 294 293 293 292 292 291 291 290 290 289 288 287 285 284 284 284 285 287 288 288 289 288 288 289 289
296 295 295 295 294 292 290 289 290 291 292 293 293 294 295 294 294 294 293 293 292 292 291 290 290 290 289 288 287 285 283 283 283 283 285 287 288 288 289 287 287 288 288
296 297 297 296 295 292 291 291 293 293 294 294 295 295 295 294 293 293 293 292 292 291 291 290 290 289 288 287 285 283 282 282 282 282 286 287 288 288 288 287 287 288 288
299 299 298 297 296 295 294 294 295 295 295 294 294 295 294 294 293 293 292 292 291 291 290 290 289 289 288 285 283 282 282 282 282 282 286 287 288 288 286 286 287 287 287
301 300 300 299 297 296 296 295 295 294 294 294 295 294 294 293 293 293 292 292 291 290 290 289 289 289 288 287 284 282 282 282 282 282 287 287 287 287 285 286 286 287 287
300 299 298 297 296 295 294 294 293 294 294 295 295 294 294 293 293 293 292 292 291 291 290 289 289 289 288 287 286 283 282 282 282 284 286 286 287 286 285 286 286 286 287
299 299 299 298 297 296 294 294 294 295 295 295 294 294 294 293 293 293 292 292 291 291 290 289 289 289 288 287 286 284 282 282 282 285 285 285 285 284 284 285 286 286 287
299 299 298 297 297 296 297 296 296 295 295 295 294 294 294 294 293 293 292 292 291 291 290 289 289 289 288 287 286 284 282 282 282 284 284 284 284 283 283 284 285 286 287
Wind_Speed
45 44 42 38 42 44 44 41 42 42 44 41 40 37 33 28 24 23 21 19 22 21 17 16 18 13 17 16 17 19 21 20 10 15 24 26 23 31 35 35 33 30 27
44 44 39 45 45 43 45 45 46 44 42 43 41 37 33 29 29 27 25 23 23 21 17 16 17 15 19 18 20 18 20 20 19 16 21 27 29 29 30 36 37 34 29
43 40 42 45 44 45 43 42 43 43 41 41 39 36 35 32 32 26 27 24 21 18 18 19 18 17 20 18 18 18 19 19 19 18 17 24 27 29 29 34 35 34 32
40 41 42 46 45 46 45 42 45 41 43 42 39 37 36 33 30 28 25 22 22 21 20 20 19 17 15 15 16 18 16 14 17 19 19 21 25 31 27 26 29 32 35
35 40 42 41 44 47 47 43 44 41 41 42 41 38 34 32 32 31 27 25 23 22 21 20 19 17 12 15 19 21 17 12 17 20 21 19 23 29 26 27 25 29 32
29 25 35 49 50 50 50 44 41 41 40 45 44 40 36 33 31 31 31 31 27 24 18 15 18 19 17 14 14 18 17 16 17 19 18 23 24 27 26 30 26 23 13
40 35 26 69 56 42 45 44 40 38 46 45 43 42 40 36 32 30 27 24 21 18 16 17 22 20 20 19 18 17 19 16 15 19 24 24 24 27 32 29 29 26 23
42 40 48 50 45 40 41 37 39 41 42 46 46 44 41 33 27 24 24 23 23 21 21 23 26 24 24 26 24 25 25 24 25 24 22 28 24 31 27 30 28 26 24
42 42 53 50 42 42 39 37 36 41 40 42 44 43 39 31 26 27 29 28 27 25 23 24 27 26 25 24 25 26 26 25 24 23 22 24 23 26 27 34 30 26 24
46 43 46 42 44 44 39 36 36 40 41 44 41 36 32 31 23 23 23 25 25 25 23 21 22 23 22 23 25 25 27 26 26 26 26 27 29 28 33 35 34 23 25
46 39 44 42 44 43 40 37 39 39 40 43 41 34 30 27 24 18 19 24 24 21 22 19 17 18 20 20 23 24 25 24 25 26 27 29 29 31 35 35 35 31 30
45 44 44 44 40 39 38 36 37 40 40 38 41 36 31 30 27 26 28 23 24 25 19 16 15 17 19 21 23 25 24 25 28 29 26 28 28 32 34 34 31 33 31
46 44 41 42 39 37 38 37 35 33 35 31 32 31 32 28 27 26 26 23 19 16 12 13 17 21 21 21 22 28 26 27 30 29 26 27 29 30 31 33 30 33 30
44 43 41 39 38 34 32 31 32 31 31 30 29 28 30 28 27 23 20 17 15 17 20 22 23 22 22 22 20 26 28 27 28 28 27 27 29 33 31 33 31 34 29
41 38 36 37 38 37 36 34 33 30 33 30 30 32 32 29 24 20 19 18 19 22 22 23 23 23 23 23 22 25 30 29 30 29 31 28 29 30 31 30 31 32 28
39 35 35 35 34 35 40 44 37 33 32 31 31 33 32 31 27 23 21 23 23 21 23 23 23 23 23 21 23 24 29 28 28 28 29 28 29 29 29 29 31 30 30
40 36 36 35 33 33 32 35 40 40 35 35 34 33 33 30 27 25 25 24 22 22 24 23 22 21 22 22 24 24 27 27 25 28 29 31 32 30 28 29 32 29 32
40 36 35 34 33 31 30 30 30 31 32 35 32 32 28 25 22 22 23 23 24 23 23 21 20 21 23 24 23 23 26 27 27 28 28 30 33 29 28 30 31 29 31
35 34 35 35 34 33 31 33 34 34 35 32 28 26 24 24 25 25 23 24 23 21 20 19 20 21 21 22 20 22 25 26 25 29 27 29 33 32 28 31 31 30 31
37 33 32 33 31 31 33 32 30 31 31 31 27 23 22 25 26 23 20 20 21 20 19 20 20 19 19 19 20 22 24 26 26 29 27 28 32 33 27 32 33 29 29
31 30 29 31 28 29 32 30 32 33 27 21 17 14 18 24 22 21 21 19 16 19 19 18 17 16 16 17 19 22 24 25 25 27 25 28 32 32 28 33 33 29 29
24 28 26 26 27 28 27 26 25 28 26 23 22 24 23 22 22 21 20 18 17 14 16 15 15 13 15 18 21 22 23 24 25 26 24 27 31 28 32 33 32 29 30
22 26 25 27 33 35 34 32 30 28 26 24 25 25 23 21 19 17 16 14 13 12 11 12 12 9 10 15 22 23 22 23 23 23 21 26 30 26 32 32 30 29 30
31 33 33 33 33 31 29 29 29 29 24 20 26 24 22 20 17 15 14 13 12 11 9 11 8 7 8 13 20 22 21 21 22 19 19 24 26 26 28 30 28 30 28
33 27 28 29 30 30 28 27 23 24 27 25 23 21 19 17 15 14 12 10 10 9 9 10 7 7 8 14 19 22 21 21 21 16 18 21 22 24 24 26 27 28 27
24 26 29 29 28 27 24 27 28 26 25 23 21 20 18 15 15 13 10 10 12 10 9 7 6 7 9 14 17 21 20 20 20 15 16 19 20 22 23 24 26 27 24
Wind_Direction
182 186 180 173 173 156 153 150 150 154 156 154 149 144 142 140 137 129 123 117 105 99 92 86 74 64 57 51 41 35 30 25 4 347 356 358 9 359 354 360 1 358 353
187 180 170 162 160 154 151 153 152 147 149 146 143 143 141 134 131 129 119 115 110 99 89 78 68 59 58 51 39 38 31 27 14 349 357 3 359 357 360 358 358 355 349
186 172 160 159 159 152 147 145 141 139 137 140 143 140 136 136 134 126 124 117 108 97 84 70 61 56 57 50 43 38 26 24 22 11 1 360 1 355 351 352 350 346 344
176 168 163 162 158 146 140 134 132 136 135 138 137 136 136 134 127 125 120 112 102 94 81 67 58 55 57 45 36 20 7 12 15 11 2 351 351 349 348 340 340 343 338
161 164 160 155 144 131 126 128 128 129 130 131 133 132 130 127 126 123 115 110 106 99 81 65 57 57 70 51 34 30 23 26 11 2 350 345 346 341 340 339 335 333 339
134 147 171 140 122 121 119 123 125 124 125 131 131 129 126 122 125 123 120 112 106 102 90 68 59 64 65 55 44 40 45 22 6 355 337 332 343 348 350 348 338 342 337
112 120 114 97 100 116 120 122 124 120 127 124 125 125 120 123 127 124 121 115 107 98 86 69 61 62 56 53 51 51 40 32 9 355 349 2 355 6 358 351 342 335 322
124 114 107 100 111 117 118 117 116 121 121 121 120 120 118 117 121 117 112 105 98 91 84 73 69 67 60 56 50 42 38 33 29 25 24 16 9 360 358 352 344 336 333
116 121 114 114 124 119 116 118 120 120 117 117 119 118 116 113 112 113 112 104 98 87 82 76 71 67 61 54 46 37 33 32 28 24 19 10 4 6 9 358 352 346 339
112 115 116 126 126 118 119 121 120 114 113 117 116 114 117 120 120 109 113 112 101 86 79 80 71 65 60 53 47 37 30 23 21 17 16 14 6 15 15 7 355 344 343
117 124 119 120 113 115 117 118 116 115 114 113 113 110 105 108 122 133 140 113 104 91 83 75 62 59 56 59 51 40 29 24 23 20 17 14 5 13 10 9 6 358 346
115 109 107 109 109 115 115 115 115 117 115 112 110 104 102 104 110 111 108 100 95 92 84 73 63 53 55 58 54 41 34 32 26 23 18 11 4 3 3 4 5 357 357
106 107 108 111 115 119 120 118 113 113 114 112 111 111 109 107 104 100 102 98 90 80 69 63 67 66 62 55 51 36 36 33 27 23 17 7 3 7 359 1 360 353 353
108 109 111 112 112 112 111 112 114 118 119 119 118 111 109 108 103 101 100 99 89 78 82 74 72 66 60 52 51 37 37 34 29 25 15 5 7 6 358 2 356 350 351
110 110 107 107 111 113 113 119 122 122 122 119 119 121 115 104 109 104 104 92 89 85 81 74 66 60 53 49 47 40 32 33 27 24 14 9 4 1 356 358 358 351 354
105 105 107 106 105 102 102 100 109 113 114 118 124 119 109 106 108 103 92 90 89 88 81 72 64 56 49 50 44 43 32 30 26 22 15 12 3 355 350 359 359 355 355
106 106 104 104 101 100 100 100 98 100 108 113 113 111 109 109 103 99 96 92 87 84 76 71 64 57 50 50 46 44 31 29 26 23 17 14 9 356 352 359 357 355 356
105 107 108 108 108 105 105 107 108 108 105 104 106 108 108 106 102 98 97 95 88 79 73 70 68 61 54 47 48 38 25 23 23 20 17 17 11 358 352 359 356 353 356
101 104 105 104 103 103 100 101 105 107 109 112 112 105 96 92 90 90 91 87 85 84 79 74 70 64 59 52 43 33 24 23 21 18 17 14 12 2 359 357 354 357 360
104 108 108 103 100 101 102 105 110 111 114 116 113 107 99 100 93 92 91 88 79 76 84 79 70 65 58 48 36 28 24 23 20 17 17 15 13 9 3 358 356 355 359
119 110 106 105 110 116 121 123 120 117 118 120 117 106 103 106 103 97 93 91 88 74 81 78 70 66 52 41 33 26 24 22 19 16 15 15 13 8 6 4 1 358 360
119 114 120 122 126 126 129 127 125 125 122 116 113 115 112 107 102 101 98 94 89 85 81 74 68 63 48 41 33 26 22 19 15 14 13 14 11 13 7 7 2 0 1
128 131 128 122 116 116 115 118 122 125 123 116 114 116 114 113 110 105 101 99 94 95 88 72 68 68 44 33 28 24 21 17 13 11 12 12 10 15 6 6 4 0 1
120 120 117 118 120 120 120 123 127 131 129 121 119 117 118 118 115 113 113 108 100 99 82 68 69 54 43 32 24 20 18 15 13 17 18 15 12 12 4 7 10 7 3
124 123 126 127 130 134 136 137 140 133 123 122 122 121 121 123 123 119 114 118 103 108 89 77 63 51 43 23 16 14 13 14 15 23 21 19 14 4 5 9 8 9 8
123 122 123 124 126 129 129 126 125 127 128 130 131 130 132 130 130 123 117 101 107 92 89 86 62 48 22 10 11 9 11 13 16 23 17 18 7 5 6 11 8 12 9